Flag for United Kingdom Weather past 2 weeks in Colchester, England, United Kingdom

Now
73 °F

Passing clouds.


Feels Like: 76 °F
Forecast: 59 / 79 °F
Wind: 12 mph from Northeast

Location: Cranfield

Current Time: Jul 23, 2014 at 1:13:55 AM

Latest Report: Jul 22, 2014 at 5:50 PM


Visibility: N/A

Pressure: 30.21 "Hg

Humidity: 69%

Dew point: 63 °F

Location of ColchesterLocation

Historic Weather in Colchester — Graph

°F

Colchester temperature yesterday

Maximum temperature yesterday: 77 °F (at 3:50 PM)
Minimum temperature yesterday: 55 °F (at 7:50 AM)
Average temperature yesterday: 71 °F

Past Weeks' High & Low Weather Summary

 TemperatureHumidityPressure
High84 °F (Jul 18, 2:50 PM)100% (Jul 11, 8:20 AM)30.24 "Hg (Jul 11, 8:20 AM)
Low55 °F (Jul 11, 8:20 AM)45% (Jul 18, 4:20 PM)29.71 "Hg (Jul 13, 10:20 AM)
Average70 °F72%30.00 "Hg
* Reported Jul 7 5:50 PM — Jul 22 5:50 PM, Colchester, Weather by CustomWeather, © 2014

Note: Actual official high and low records may vary slightly from our data, if they occured in-between our weather recording intervals... More about our weather records

Advertising

Colchester weather history for previous 24 hours

 ConditionsComfort  
Time TempWeatherWind HumidityBarometerVisibility
5:50 PM
Jul 22
73 °FPassing clouds.12 mph69%30.21 "HgN/A
5:20 PM73 °FPassing clouds.12 mph69%30.21 "HgN/A
4:50 PM75 °FPassing clouds.12 mph65%30.21 "HgN/A
4:20 PM75 °FPassing clouds.13 mph65%30.21 "HgN/A
3:50 PM77 °FPassing clouds.13 mph61%30.21 "HgN/A
3:20 PM75 °FPassing clouds.12 mph65%30.21 "HgN/A
2:20 PM75 °FPassing clouds.12 mph65%30.21 "HgN/A
1:50 PM75 °FPassing clouds.9 mph65%30.21 "HgN/A
1:20 PM75 °FPassing clouds.9 mph65%30.21 "HgN/A
12:50 PM75 °FPassing clouds.9 mph65%30.21 "HgN/A
12:20 PM73 °FPassing clouds.10 mph69%30.21 "HgN/A
11:50 AM72 °FPassing clouds.10 mph69%30.21 "HgN/A
11:20 AM70 °FPassing clouds.9 mph78%30.21 "HgN/A
10:50 AM68 °FPassing clouds.9 mph78%30.24 "HgN/A
10:20 AM64 °FPassing clouds.8 mph94%30.24 "HgN/A
9:50 AM63 °FScattered clouds.7 mph94%30.24 "HgN/A
9:20 AM61 °FPartly sunny.5 mph94%30.24 "Hg4 mi
8:50 AMN/AFog.6 mphN/A30.24 "Hg2 mi
8:20 AMN/AFog.7 mphN/A30.24 "Hg1 mi
7:50 AM55 °FFog.7 mphN/A30.21 "Hg1 mi
Weather by CustomWeather, © 2014

See weather overviewHow to use our weather pages